www.pogodaiklimat.ru

Погода и климат >> Архив погоды >> Россия >> Калмыкия >> Кетченеры


ПОГОДА в Кетченерах

  • Прогноз погоды в Кетченерах
  • Монитор погоды в Кетченерах
  • Климат города

АРХИВ ПОГОДЫ в Кетченерах

Время (UTC), дата Ветер
(напр.,м/с)
 
Видим.   Явления Облачность Т
(С)
Тd
(С)
f
(%)
Тe
(С)
Тes
(С)
Комфортность P
(гПа)
Po
(гПа)
Тmin
(С)
Tmax
(С)
R
(мм)
R24
(мм)
S
(см)
09 19.06 штиль 0 20 км 8/6 600 м
[Cb calv Ac trans Ci fib]
+25.5 +8.0 33 +26 +33 жарко 1010.1 1003.5
15 19.06 Ю 3 20 км 6/3 600 м
[Cb calv Ac trans Ci fib]
+25.9 +9.6 36 +27 +27 жарко 1008.5 1001.9 +28.9
21 19.06 З 1 20 км ясно +15.2 +12.0 81 +16 +16 1009.0 1002.1
03 20.06 З 2 20 км 3/0
[Ac trans Ci sp]
+18.3 +11.0 62 +19 +21 1008.1 1001.3 +13.7
09 20.06 В 2 20 км 6/6 1500 м
[Cu hum]
+30.5 +3.9 18 +28 +36 жарко 1006.5 1000.0
15 20.06 СЗ 2 20 км 10/9 600 м
[Cb calv Ci fib]
+29.2 +4.4 21 +28 +28 жарко 1005.3 998.7 +31.4
21 20.06 З 3 20 км ясно +19.6 +12.8 65 +21 +21 комфорт 1007.3 1000.5
03 21.06 З 3 20 км 3/0
[Ac trans]
+19.0 +14.2 74 +20 +22 1006.8 1000.0 +17.0
09 21.06 З 2 20 км 6/6 600 м
[Cb calv]
+29.3 +9.3 29 +29 +37 жарко 1005.2 998.6
15 21.06 ЮЗ 6-11
{12}
20 км в посл. час ливневой дождь 4/4 600 м
[Cb calv]
+29.3 +10.4 31 +29 +30 жарко 1003.2 996.7 +33.1 0.3
21 21.06 ЮЗ 2 20 км зарница 6/3 600 м
[Cb calv Ac trans Ci fib]
+21.4 +14.8 66 +24 +24 комфорт 1005.6 998.9
03 22.06 З 3 20 км 10/10 600 м
[Cb calv]
+20.2 +16.2 78 +23 +23 комфорт 1005.4 998.7 +18.3
09 22.06 ЮЗ 5
{11}
20 км 4/3 600 м
[Cb cap Ci ing]
+29.3 +11.9 34 +30 +37 жарко 1005.4 998.9
15 22.06 З 4
{12}
20 км 6/3 600 м
[Cb calv Ac lent Ci fib]
+27.2 +8.6 31 +27 +28 жарко 1006.1 999.6 +30.3
21 22.06 З 2 20 км ясно +15.6 +5.1 50 +16 +16 1011.3 1004.4
03 23.06 З 1 20 км 3/0
[Ac trans Ci fib]
+15.1 +8.8 66 +16 +18 1012.6 1005.7 +10.2
09 23.06 ЮЗ 4
{11}
20 км 10/10 600 м
[Cb calv]
+26.8 +4.6 24 +26 +26 жарко 1012.7 1006.0
15 23.06 З 3
{11}
20 км 6/4 600 м
[Cb calv Ac trans]
+24.1 +8.7 37 +25 +26 комфорт 1011.0 1004.3 +29.1
21 23.06 Ю 3 20 км ясно +19.3 +9.8 54 +20 +20 1010.7 1003.9
03 24.06 ЮЗ 3 20 км 10/10 600 м
[Cb calv]
+18.2 +14.4 78 +19 +19 1009.1 1002.3 +16.3
09 24.06 ЮЗ 5-10
{14}
20 км в посл. час ливневой дождь 9/9 600 м
[Cb calv]
+22.2 +16.5 70 +26 +27 душно 1006.2 999.6
15 24.06 З 4
{21}
2000 м гроза, ливневой дождь 10/10 300 м
[Cb calv]
+18.7 +18.4 98 +20 +20 1005.8 999.0 +26.5 22
21 24.06 СЗ 1 10 км слабый ливневой дождь 10/10 300 м
[Cb calv]
+17.1 +15.2 89 +18 +18 1009.0 1002.2
03 25.06 С 2 20 км {ливн. осадки} 10/8 600 м
[Cb calv Ac trans]
+14.9 +11.9 82 +15 +15 1011.5 1004.6 +14.6 4
09 25.06 Ю 2 20 км 3/0
[Ac trans Ci fib]
+21.5 +7.2 40 +22 +38 комфорт 1013.7 1006.9
15 25.06 ЮВ 2 20 км 4/0
[Ac trans]
+25.0 +6.2 30 +25 +26 комфорт 1014.1 1007.4 +25.6
21 25.06 В 1 20 км 3/3 600 м
[Sc]
+16.5 +12.0 75 +17 +17 1016.8 1009.9
03 26.06 ЮЗ 4 20 км 3/3 600 м
[Cb calv]
+19.5 +10.0 54 +21 +21 комфорт 1016.7 1009.9 +16.3

 

Местоположение метеостанции Кетченеры (Калмыкия, Россия): широта 47.32 долгота 44.57 высота над уровнем моря 58 м.

В архиве по умолчанию представлена погода в Кетченерах за последнюю неделю. Архивные данные за месяц целиком и за предыдущие месяцы, начиная с января 2011 года, Вы можете получить, выбрав интересующий диапазон дат из раскрывающегося списка и нажав кнопку "Ввод!".

Внимание! Время в таблицах - всемирное. Для получения местного времени необходимо прибавить поправку, которая в Кетченерах равна 3 ч.

Смотрите также архив погоды в соседних городах и на ближайших метеорологических станциях:

Погода в Малых Дербетах (Калмыкия, Россия) (69 км)
Погода в Элисте (Калмыкия, Россия) (107 км)
Погода в Ремонтном (Ростовская область, Россия) (108 км)
Погода в Котельниково (Волгоградская область, Россия) (112 км)
Погода в Юсте (Калмыкия, Россия) (134 км)
Погода в Яшкуле (Калмыкия, Россия) (140 км)
Погода в Черный Яр (Астраханская область, Россия) (143 км)
Погода в Волгограде город (Волгоградская область, Россия) (150 км)
Погода в Утте (Калмыкия, Россия) (153 км)
Погода в Нижнем Чире (Волгоградская область, Россия) (156 км)

Пояснения к столбцам:

Ветер - указаны скорость ветра в м/с - средняя за 10 мин, порывы в срок и между сроками (в фигурных скобках) и направление, откуда дует ветер: С - северный, СВ - северо-восточный, В - восточный, ЮВ - юго-восточный, Ю - южный, ЮЗ - юго-западный, З - западный, СЗ - северо-западный.
Видимость - горизонтальная дальность видимости в метрах или километрах. При видимости от 1 до 10 км при отсутствии осадков обычно наблюдается дымка, при ухудшении видимости до 1 км и менее - туман. В сухую погоду видимость может ухудшаться дымом, пылью или мглою.
Явления - указаны атмосферные явления, наблюдавшиеся в срок или в последний час перед сроком; фигурными скобками обозначены явления, наблюдавшиеся между сроками (за 1-3 часа до срока); квадратными скобками обозначены град или гололедные отложения с указанием их диаметра в мм.
Облачность - указаны через наклонную черту общая и нижняя облачность в баллах и высота нижней границы облаков в метрах; квадратными скобками обозначены формы облаков: Ci - перистые, Cs - перисто-слоистые, Cc - перисто-кучевые, Ac - высококучевые, As - высокослоистые, Sc - слоисто-кучевые, Ns - слоисто-дождевые, Cu - кучевые, Cb - кучево-дождевые. Подробнее классификацию облаков см. в Атласе облаков (PDF).
T - Температура воздуха - температура, измеренная на высоте 2 м над землей.
Td - Температура точки росы - температура, при понижении до которой содержащийся в воздухе водяной пар достигнет насыщения.
f - Относительная влажность воздуха - влажноcть воздуха, измеренная на высоте 2 м над землей.
Te - Эффективная температура - температура, которую ощущает одетый по сезону человек в тени. Характеристика душности погоды. При расчете учитывается влияние влажности воздуха и скорости ветра на теплоощущения человека.
Tes - Эффективная температура на солнце - температура, которую ощущает человек, с поправкой на солнечный нагрев. Характеристика знойности погоды. Зависит от высоты солнца над горизонтом, облачности и скорости ветра. Ночью, в пасмурную погоду, а также при ветре 12 м/с и более поправка равна нулю.
P - Атмосферное давление - приведенное к уровню моря атмосферное давление.
Po - Атмосферное давление - измеренное на уровне метеостанции атмосферное давление.
Tmin - Минимальная температура - минимум температуры воздуха на высоте 2 м над землей.
Tmax - Максимальная температура - максимум температуры воздуха на высоте 2 м над землей.
R - Количество осадков - Количество выпавших осадков за период времени, мм. При наведении курсора мыши на число - период времени, за который выпало указанное количество осадков.
R24 - Количество осадков - Количество выпавших осадков за 24 часа, мм.
S - Снежный покров - Высота снежного покрова, см. При наведении курсора мыши на число - состояние снежного покрова и степень покрытия местности в баллах.